Find Tenkoh-2

NORAD ID: 68261 Int'l Des: 2025-241 Owner: NIHON Country: J operational
LEOCIRCULAR

Current View

Loading 3D Globe...

About Tenkoh-2

Tenkoh-2 (NORAD 68261) is a satellite launched Oct 26, 2025 by NIHON of J. It operates in LEO, CIRCULAR orbit with a mass of 10.00 kg.

Upcoming Passes

Passes for default location (London). Set your location on the main map for personalized predictions.

Altitude History

Loading altitude history...

Two-Line Element Set

1 68261U 25241B 26166.70419506 .00005304 00000-0 23027-3 0 9999
2 68261 51.6697 326.6857 0006067 137.6687 222.4761 15.23889978 14686
Epoch: Jun 15, 2026 • Age: 73 hours

Current Status

Altitude 498.3 km
Velocity 7.62 km/s
Sub-Earth Point 47.17°N, 160.69°W
Launch Date Oct 26, 2025
Age 0.6 years
Type other

Technical Details

Classification Payload
Mass 10.00 kg
Dry Mass 10.00 kg
Total Mass 10.00 kg
Length 0.30 m
Diameter 0.20 m
Span 0.30 m
Shape Box
Manufacturer NIHON
Bus Type Cubesat 6U
Phase Status In Orbit
Owner/State NIHON/J

Most Searched